Location: Unspecified
(48.5670°N, 0.0000°E)
Time: 08:21:38
(UTC+00:00)

Vanguard 2 Rocket - Pass Details

Date: 31 August 2019
Orbit: 554 x 3327 km, 32.9° (Epoch: 19 September)

Event Time Altitude Azimuth Distance (km) Brightness Sun altitude
Rises 01:40:33 0° 234° (SW) 4,087 - -28.6°
Reaches altitude 10° 01:43:12 10° 224° (SW) 3,429 - -28.4°
Exits shadow 01:50:28 34° 170° (S) 2,773 8.9 -27.8°
Maximum altitude 01:51:13 34° 163° (SSE) 2,829 9.0 -27.7°
Drops below altitude 10° 02:03:55 10° 107° (ESE) 5,473 11.0 -26.6°
Sets 02:09:30 0° 100° (E) 6,852 11.7 -26.0°
